• Join FlightAware (Why Join?)
  • Login
  • US Flag GB Flag 
13:30 EST


 

Airport Tracker/Info


-or-


 

Live Flight TrackerFlight Track Log ✈ SWA655 ✈ 10-Apr-2013 ✈ KSFO - KLAX

Flight Track Log - Related Links

Times and Time Zones

All times are in EDT time to prevent confusion due to time zone crossing. See the SWA655 flight status page for this flight to view local times or setup timezone preferences in your user account.

Time Position Orientation Groundspeed Altitude Reporting Facility
EDT Latitude Longitude Course Direction KTS MPH feet Rate Location/Type
17:19 37.6333 -122.3667 138° Southeast 162 186 1,300  Level Northern Cal TRACON
17:20 37.6833 -122.3833 345° North 221 254 3,700 1,850 Climbing Northern Cal TRACON
17:21 37.6667 -122.4333 247° West 287 330 5,000 1,522 Climbing Northern Cal TRACON
17:23 37.5742 -122.4008 164° South 297 342 7,200 2,762 Climbing Oakland Center
17:24 37.4075 -122.3064 156° South 337 388 13,700 3,260 Climbing Los Angeles Center
17:25 37.2577 -121.9618 138° Southeast  Level Estimated
17:25 37.3158 -122.2511 154° Southeast 351 404 16,600  Level Los Angeles Center
17:27 37.2344 -122.1625 139° Southeast 386 444 18,900 2,391 Climbing Los Angeles Center
17:28 37.1539 -122.0317 128° Southeast 401 461 21,900 2,318 Climbing Oakland Center
17:29 37.0758 -121.9239 132° Southeast 417 480 24,000 2,115 Climbing Oakland Center
17:30 36.9969 -121.8117 131° Southeast 429 494 26,200 2,016 Climbing Oakland Center
17:31 36.9150 -121.7031 133° Southeast 431 496 28,100 1,672 Climbing Oakland Center
17:32 36.8331 -121.5872 131° Southeast 443 510 29,600 1,475 Climbing Oakland Center
17:33 36.7456 -121.4653 132° Southeast 454 522 31,100 1,610 Climbing Oakland Center
17:34 36.6619 -121.3475 131° Southeast 454 522 32,900 1,317 Climbing Oakland Center
17:35 36.5761 -121.2292 132° Southeast 459 528 33,800 1,279 Climbing Oakland Center
17:36 36.4719 -121.0864 132° Southeast 464 534 35,500 1,328 Climbing Oakland Center
17:37 36.3867 -120.9686 132° Southeast 462 532 36,500 738 Climbing Oakland Center
17:38 36.2981 -120.8494 133° Southeast 467 537 37,000 246 Climbing Oakland Center
17:39 36.2092 -120.7308 133° Southeast 470 541 37,000  Level Oakland Center
17:40 36.1206 -120.6081 132° Southeast 475 547 37,000  Level Oakland Center
17:41 36.0306 -120.4900 133° Southeast 474 545 37,000  Level Oakland Center
17:42 35.9425 -120.3717 133° Southeast 469 540 37,000  Level Oakland Center
17:43 35.8550 -120.2539 132° Southeast 465 535 37,000  Level Oakland Center
17:44 35.7669 -120.1378 133° Southeast 461 531 37,000  Level Oakland Center
17:45 35.6769 -120.0194 133° Southeast 468 539 37,000  Level Oakland Center
17:46 35.5764 -119.9167 140° Southeast 473 544 37,000  Level Oakland Center
17:47 35.4697 -119.8258 145° Southeast 464 534 37,000  Level Oakland Center
17:48 35.3636 -119.7331 145° Southeast 465 535 37,000  Level Oakland Center
17:49 35.2581 -119.6436 145° Southeast 462 532 37,000 -585 Level Oakland Center
17:50 35.1306 -119.5336 145° Southeast 465 535 35,800 -1,366 Descending Oakland Center
17:51 35.0264 -119.4467 146° Southeast 455 524 34,200 -2,262 Descending Oakland Center
17:52 34.9272 -119.3594 144° Southeast 440 506 31,200 -3,000 Descending Oakland Center
17:53 34.8250 -119.2744 146° Southeast 442 509 28,100 -3,000 Descending Oakland Center
17:53 34.8044 -119.2572 145° Southeast 446 513 27,400 -3,039 Descending Los Angeles Center
17:54 34.7019 -119.1697 145° Southeast 449 517 24,200 -3,048 Descending Los Angeles Center
17:56 34.5978 -119.0831 146° Southeast 462 532 21,100 -3,145 Descending Los Angeles Center
17:57 34.4769 -118.9828 146° Southeast 442 509 17,700 -2,806 Descending Los Angeles Center
17:58 34.3811 -118.9019 145° Southeast 418 481 15,300 -1,742 Descending Los Angeles Center
17:59 34.2822 -118.8539 158° South 382 440 14,100 -1,452 Descending Los Angeles Center
18:00 34.1872 -118.8189 163° South 360 414 12,300 -1,742 Descending Los Angeles Center
18:01 34.0808 -118.7794 163° South 360 414 10,500 -1,113 Descending Los Angeles Center
18:02 34.0322 -118.6933 124° Southeast 293 337 10,000 -774 Descending Los Angeles Center
18:03 34.0236 -118.6000 96° East 278 320 8,900 -1,452 Descending Los Angeles Center
18:04 34.0147 -118.5022 96° East 272 313 7,000 -919 Descending Los Angeles Center
18:05 34.0164 -118.4186 89° East 265 305 7,000 -629 Level Los Angeles Center
18:06 34.0272 -118.3306 82° East 263 303 5,700 -1,016 Descending Los Angeles Center
18:07 34.0375 -118.2478 81° East 254 292 4,900 -774 Descending Los Angeles Center
18:08 34.0411 -118.1811 86° East 210 242 4,100 -794 Descending Los Angeles Center
18:09 34.0019 -118.1953 197° South 188 216 3,100 -750 Descending Los Angeles Center
18:10 33.9664 -118.2611 237° Southwest 174 200 2,400 -726 Descending Los Angeles Center
18:11 33.9617 -118.3097 263° West 156 180 1,600 -677 Descending Los Angeles Center
18:12 33.9578 -118.3506 263° West 139 160 1,000 -581 Descending Los Angeles Center
18:13 33.9544 -118.3897 264° West 126 145 400 -581 Descending Los Angeles Center
18:15 33.9333 -118.4000 250° West  Level FlightAware Approximate
18:22 33.9425 -118.4081 250° West  Level Estimated
18:23 33.9425 -118.4081 250° West  Level Estimated